TimeCDT,TemperatureF,Dew PointF,Humidity,Sea Level PressureIn,VisibilityMPH,Wind Direction,Wind SpeedMPH,Gust SpeedMPH,PrecipitationIn,Events,Conditions,WindDirDegrees,DateUTC
12:15 AM,69.8,66.2,88,30.00,10.0,South,4.6,-,N/A,,Partly Cloudy,170,2013-06-18 05:15:00
12:35 AM,68.0,66.2,94,30.00,10.0,South,3.5,-,N/A,,Clear,190,2013-06-18 05:35:00
12:55 AM,68.0,66.2,94,29.99,10.0,SSE,6.9,-,N/A,,Clear,160,2013-06-18 05:55:00
1:15 AM,69.8,66.2,88,29.98,10.0,SE,3.5,-,N/A,,Partly Cloudy,140,2013-06-18 06:15:00
1:35 AM,69.8,64.4,83,29.98,10.0,South,5.8,-,N/A,,Partly Cloudy,170,2013-06-18 06:35:00
1:55 AM,68.0,64.4,88,29.98,10.0,South,6.9,-,N/A,,Mostly Cloudy,170,2013-06-18 06:55:00
2:15 AM,68.0,64.4,88,29.98,10.0,SSE,6.9,-,N/A,,Mostly Cloudy,160,2013-06-18 07:15:00
2:35 AM,69.8,64.4,83,29.97,10.0,SSE,6.9,-,N/A,,Overcast,160,2013-06-18 07:35:00
2:55 AM,69.8,64.4,83,29.96,10.0,SSE,5.8,-,N/A,,Overcast,160,2013-06-18 07:55:00
3:15 AM,69.8,66.2,88,29.96,10.0,South,6.9,-,N/A,,Overcast,180,2013-06-18 08:15:00
3:35 AM,69.8,66.2,88,29.95,8.0,SSW,9.2,-,0.06,,Overcast,200,2013-06-18 08:35:00
3:55 AM,69.8,68.0,94,29.96,10.0,SSW,9.2,-,0.06,,Overcast,210,2013-06-18 08:55:00
4:15 AM,69.8,68.0,94,29.95,8.0,SSW,9.2,-,N/A,,Overcast,200,2013-06-18 09:15:00
4:35 AM,69.8,68.0,94,29.96,7.0,SSW,8.1,-,N/A,,Overcast,200,2013-06-18 09:35:00
5:15 AM,69.8,69.8,100,29.97,7.0,SSW,8.1,-,N/A,,Overcast,210,2013-06-18 10:15:00
5:35 AM,69.8,69.8,100,29.97,7.0,SSW,8.1,-,N/A,,Overcast,210,2013-06-18 10:35:00
5:55 AM,69.8,69.8,100,29.97,5.0,SSW,8.1,-,N/A,,Overcast,210,2013-06-18 10:55:00
6:15 AM,71.6,69.8,94,29.98,5.0,SSW,8.1,-,N/A,,Overcast,210,2013-06-18 11:15:00
6:35 AM,71.6,69.8,94,29.98,4.0,SSW,10.4,-,N/A,,Overcast,210,2013-06-18 11:35:00
6:55 AM,71.6,69.8,94,29.99,5.0,SW,8.1,-,N/A,,Overcast,220,2013-06-18 11:55:00
7:15 AM,71.6,69.8,94,30.00,7.0,SW,9.2,-,N/A,,Overcast,230,2013-06-18 12:15:00
7:35 AM,71.6,69.8,94,30.00,10.0,WSW,8.1,-,N/A,,Overcast,240,2013-06-18 12:35:00
7:55 AM,73.4,71.6,94,30.00,10.0,SW,9.2,-,N/A,,Overcast,230,2013-06-18 12:55:00
8:15 AM,73.4,71.6,94,30.00,10.0,SW,10.4,-,N/A,,Overcast,230,2013-06-18 13:15:00
8:35 AM,73.4,71.6,94,30.00,10.0,WSW,9.2,-,N/A,,Overcast,240,2013-06-18 13:35:00
8:55 AM,73.4,71.6,94,30.00,10.0,SW,9.2,-,N/A,,Overcast,230,2013-06-18 13:55:00
9:15 AM,75.2,71.6,89,30.00,10.0,WSW,6.9,-,N/A,,Overcast,240,2013-06-18 14:15:00
9:35 AM,75.2,71.6,89,30.00,10.0,SW,8.1,-,N/A,,Overcast,230,2013-06-18 14:35:00
9:55 AM,77.0,71.6,83,30.00,10.0,WSW,9.2,-,N/A,,Overcast,240,2013-06-18 14:55:00
10:15 AM,78.8,71.6,78,30.00,10.0,SW,12.7,18.4,N/A,,Overcast,230,2013-06-18 15:15:00
10:35 AM,78.8,71.6,78,30.00,10.0,WSW,9.2,-,N/A,,Overcast,240,2013-06-18 15:35:00
10:55 AM,77.0,71.6,83,29.98,10.0,WSW,11.5,17.3,N/A,,Mostly Cloudy,240,2013-06-18 15:55:00
11:15 AM,80.6,71.6,74,29.98,10.0,SW,10.4,-,N/A,,Scattered Clouds,220,2013-06-18 16:15:00
11:35 AM,80.6,71.6,74,29.97,10.0,WSW,9.2,16.1,N/A,,Mostly Cloudy,250,2013-06-18 16:35:00
11:55 AM,80.6,69.8,70,29.97,10.0,West,8.1,18.4,N/A,,Mostly Cloudy,260,2013-06-18 16:55:00
12:15 PM,78.8,71.6,78,29.96,10.0,SW,16.1,21.9,N/A,,Overcast,230,2013-06-18 17:15:00
12:35 PM,80.6,71.6,74,29.96,10.0,SW,11.5,19.6,N/A,,Mostly Cloudy,230,2013-06-18 17:35:00
12:55 PM,82.4,69.8,66,29.96,10.0,SW,15.0,19.6,N/A,,Clear,230,2013-06-18 17:55:00
1:15 PM,82.4,69.8,66,29.95,10.0,WSW,17.3,20.7,N/A,,Clear,240,2013-06-18 18:15:00
1:35 PM,82.4,69.8,66,29.95,10.0,West,15.0,-,N/A,,Partly Cloudy,260,2013-06-18 18:35:00
1:55 PM,82.4,69.8,66,29.95,10.0,SW,13.8,19.6,N/A,,Scattered Clouds,230,2013-06-18 18:55:00
2:15 PM,75.2,69.8,83,29.98,7.0,West,12.7,19.6,0.10,,Mostly Cloudy,260,2013-06-18 19:15:00
2:35 PM,71.6,69.8,94,29.96,10.0,SW,6.9,-,0.34,,Mostly Cloudy,230,2013-06-18 19:35:00
2:55 PM,73.4,69.8,88,29.94,10.0,West,5.8,-,0.34,,Clear,270,2013-06-18 19:55:00
3:15 PM,77.0,73.4,89,29.93,10.0,WSW,5.8,-,N/A,,Clear,240,2013-06-18 20:15:00
3:35 PM,78.8,71.6,78,29.93,10.0,WSW,9.2,-,N/A,,Clear,240,2013-06-18 20:35:00
3:55 PM,78.8,71.6,78,29.94,10.0,WSW,9.2,-,N/A,,Clear,250,2013-06-18 20:55:00
4:15 PM,78.8,71.6,78,29.94,10.0,SW,9.2,-,N/A,,Clear,230,2013-06-18 21:15:00
4:35 PM,77.0,71.6,83,29.93,10.0,SW,8.1,-,N/A,,Clear,230,2013-06-18 21:35:00
4:55 PM,75.2,69.8,83,29.93,10.0,SW,10.4,-,N/A,Thunderstorm,Scattered Clouds,230,2013-06-18 21:55:00
5:15 PM,75.2,68.0,78,29.92,10.0,SW,9.2,-,N/A,,Partly Cloudy,220,2013-06-18 22:15:00
5:35 PM,75.2,68.0,78,29.92,10.0,SW,9.2,-,N/A,Thunderstorm,Clear,220,2013-06-18 22:35:00
5:55 PM,77.0,68.0,74,29.93,10.0,SW,11.5,-,N/A,,Clear,230,2013-06-18 22:55:00
6:15 PM,75.2,68.0,78,29.93,10.0,SW,8.1,-,N/A,,Partly Cloudy,230,2013-06-18 23:15:00
6:35 PM,73.4,68.0,83,29.93,10.0,WSW,9.2,-,N/A,,Clear,250,2013-06-18 23:35:00
6:55 PM,73.4,68.0,83,29.95,10.0,NW,6.9,-,N/A,,Mostly Cloudy,320,2013-06-18 23:55:00
7:15 PM,73.4,66.2,78,29.94,10.0,NW,6.9,-,N/A,,Mostly Cloudy,320,2013-06-19 00:15:00
7:35 PM,71.6,64.4,78,29.94,10.0,West,6.9,-,N/A,,Partly Cloudy,260,2013-06-19 00:35:00
7:55 PM,71.6,66.2,83,29.94,10.0,WSW,4.6,-,N/A,,Clear,250,2013-06-19 00:55:00
8:15 PM,71.6,66.2,83,29.95,10.0,WSW,5.8,-,N/A,,Mostly Cloudy,240,2013-06-19 01:15:00
8:35 PM,71.6,66.2,83,29.96,10.0,West,3.5,-,N/A,,Scattered Clouds,280,2013-06-19 01:35:00
8:55 PM,71.6,66.2,83,29.96,10.0,SSW,5.8,-,N/A,,Mostly Cloudy,200,2013-06-19 01:55:00
9:15 PM,71.6,66.2,83,29.96,10.0,SSW,4.6,-,N/A,,Overcast,200,2013-06-19 02:15:00
9:35 PM,71.6,68.0,88,29.96,10.0,SSW,5.8,-,N/A,,Overcast,200,2013-06-19 02:35:00
9:55 PM,71.6,69.8,94,29.97,10.0,SSW,6.9,-,N/A,,Overcast,210,2013-06-19 02:55:00
10:15 PM,71.6,69.8,94,29.97,10.0,SW,5.8,-,N/A,,Overcast,220,2013-06-19 03:15:00
10:35 PM,71.6,69.8,94,29.97,10.0,SSW,4.6,-,N/A,,Overcast,210,2013-06-19 03:35:00
10:55 PM,71.6,69.8,94,29.97,10.0,SSW,6.9,-,N/A,,Overcast,210,2013-06-19 03:55:00
11:15 PM,71.6,69.8,94,29.97,10.0,SSW,5.8,-,N/A,,Overcast,200,2013-06-19 04:15:00
11:35 PM,69.8,68.0,94,29.97,10.0,SSW,6.9,-,N/A,,Overcast,210,2013-06-19 04:35:00
11:55 PM,69.8,68.0,94,29.97,10.0,SW,8.1,-,N/A,,Overcast,220,2013-06-19 04:55:00